Regional Weather Roundup
Issued by NWS

Home | Current Version | Previous Version | Text Only | Print | Product List | Glossary On
Versions: 1 2 3 4 5 6 7 8 9 10 11 12 13 14 15 16 17 18 19 20 21 22 23 24 25 26 27 28 29 30 31 32 33 34 35 36 37 38 39 40 41 42 43 44 45 46 47 48 49 50
000
ASUS43 KTOP 302059
RWRKS

WEATHER ROUNDUP FOR KANSAS
NATIONAL WEATHER SERVICE GOODLAND KS
400 PM CDT TUE AUG 30 2016

NOTE:  "FAIR" INDICATES FEW OR NO CLOUDS BELOW 12,000 FEET WITH NO
SIGNIFICANT WEATHER AND/OR OBSTRUCTIONS TO VISIBILITY.

KSZ001>006-013>018-027>032-041>047-302200-
NORTHWEST KANSAS

CITY           SKY/WX    TMP DP  RH WIND       PRES   REMARKS
GOODLAND       CLOUDY    77  59  53 S12       30.21F
HAYS           PTSUNNY   79  63  57 CALM      30.15F
HILL CITY      CLOUDY    77  66  68 VRB3      30.17F
RUSSELL        PTSUNNY   81  68  64 N7        30.13F
$$

KSZ061>065-074>080-084>089-302200-
SOUTHWEST KANSAS

CITY           SKY/WX    TMP DP  RH WIND       PRES   REMARKS
DODGE CITY     TSTM      69  65  86 E8        30.18F
ELKHART          N/A    N/A N/A N/A MISG        N/A
GARDEN CITY    CLOUDY    75  65  70 VRB3      30.19F
GREAT BEND     MOSUNNY   81  66  61 W7        30.13S
LIBERAL        CLOUDY    75  64  69 CALM      30.21F
$$

KSZ066>073-081>083-090>101-302200-
SOUTHEAST KANSAS

CITY           SKY/WX    TMP DP  RH WIND       PRES   REMARKS
CHANUTE        SUNNY     91  70  49 VRB3      30.06F HX  96
COFFEYVILLE    PTSUNNY   90  71  53 NE8       30.04F HX  96
HUTCHINSON     CLOUDY    86  69  56 NW5       30.09F
MEDICINE LODGE   N/A     85  69  58 NW3       30.09F
NEWTON         CLOUDY    82  72  71 N13       30.09F
PARSONS        CLOUDY    91  69  48 VRB3      30.06F HX  96
WICHITA INTL   CLOUDY    86  67  52 N7        30.07F
WICHITA JABRA  PTSUNNY   89  71  55 N5        30.07F HX  95
WINFIELD       SUNNY     89  70  53 VRB3      30.07F
$$

KSZ007>012-019>026-033>040-048>060-102>105-302200-
NORTHEAST KANSAS

CITY           SKY/WX    TMP DP  RH WIND       PRES   REMARKS
CONCORDIA      CLOUDY    79  70  74 E3        30.13F
EMPORIA        MOSUNNY   82  74  76 N8        30.08F
LAWRENCE       PTSUNNY   78  75  90 CALM      30.10F THUNDER
MANHATTAN      CLOUDY    79  72  79 N5        30.11F
OLATHE IND     MOSUNNY   86  70  58 N3        30.10F
OLATHE EXE     MOSUNNY   86  71  60 CALM      30.09F
SALINA         TSTM      74  71  91 NE13      30.13R VSB 1/4
TOPEKA BILLARD CLOUDY    84  71  65 E3        30.09F
TOPEKA FORBES  CLOUDY    82  74  76 SE6       30.10F
$$




USA.gov is the U.S. government's official web portal to all federal, state and local government web resources and services.